Weather in Novoivanivka

Ukraine / Dnipropetrovsk Region     48°02′28″N   33°31′13″E
temp.,
°C
wind,
m/s
gust,
m/s
humid.,
%
clouds,
%
prec.,
mm/h
press.,
hPa
HPBL,
m
13 april, tue
tue1300:00+10sse2479100 0.0 1021171
03:00+9sse2383100 0.0 1021165
06:00+9se2384100 0.0 1021140
09:00+10se347899 0.0 1021447
12:00+11s347291 0.0 1021769
15:00+13ssw346391 0.0 10201133
18:00+12ssw3464100 0.0 1019496
21:00+11s2473100 0.1 1020199
14 april, wed
wed1400:00+10s3581100 0.1 1019277
03:00+8sw23855 0.2 101994
06:00+7s11876 0.0 101822
09:00+10ese347642 0.0 1018526
12:00+14se455581 0.1 10171535
15:00+16se564510 0.1 10151791
18:00+15se554453 0.0 10141751
21:00+12se4960100 0.0 1014386
15 april, thu
thu1500:00+10se4872100 0.0 1013439
03:00+9se3582100 0.3 1013297
06:00+9se3590100 0.3 1012374
09:00+9se4691100 0.9 1012378
12:00+9sse4693100 1.5 1012482
15:00+13ssw3566100 1.8 10121031
18:00+12sw686679 0.6 1012822
21:00+9sw587871 0.7 1013522
16 april, fri
fri1600:00+7sw478295 0.0 1013529
03:00+6ssw5784100 0.0 1013671
06:00+6ssw5887100 0.0 1013712
09:00+5ssw5888100 0.1 1014681
12:00+6ssw6981100 0.0 1015872
15:00+6sw71079100 0.1 1016936
18:00+6sw61074100 0.1 10171185
21:00+5sw51093100 0.1 1018846
17 april, sat
sat1700:00+5sw488599 0.4 1018897
03:00+5sw3694100 0.6 1019692
06:00+5sw468682 0.1 1019497
09:00+7ssw3480100 0.0 1019506
12:00+9sw4671100 0.0 10211017
15:00+12w345793 0.1 10211175
18:00+12w1159100 0.0 1021362
21:00+10ne2371100 0.0 102293